This is the latest recevied weather packets stored in our database for station/object N3WGC-14. If no packets are shown the sender has not sent any weather packets the latest 10 day(s).
| Time | Temp. | Humidity | Pressure | Rain* | Wind** | Luminosity | Snow |
|---|---|---|---|---|---|---|---|
| 1787702002 | 22.78° C | 82% | 1017.3 hPa | 0 mm | - | - | - |
| 1787701702 | 23.33° C | 83% | 1017.2 hPa | 0 mm | - | - | - |
| 1787701402 | 23.33° C | 82% | 1017.1 hPa | 0 mm | - | - | - |
| 1787701102 | 23.89° C | 81% | 1017.1 hPa | 0 mm | - | - | - |
| 1787700802 | 24.44° C | 79% | 1017.1 hPa | 0 mm | - | - | - |
| 1787700502 | 25° C | 77% | 1017 hPa | 0 mm | - | - | - |
| 1787700202 | 25.56° C | 75% | 1016.9 hPa | 0 mm | - | - | - |
| 1787699901 | 26.67° C | 73% | 1016.9 hPa | 0 mm | - | - | - |
| 1787699601 | 27.78° C | 73% | 1016.9 hPa | 0 mm | - | - | - |
| 1787699301 | 27.78° C | 73% | 1017 hPa | 0 mm | - | - | - |
| 1787699001 | 26.67° C | 74% | 1017 hPa | 0 mm | - | - | - |
| 1787698701 | 26.67° C | 72% | 1017 hPa | 0 mm | - | - | - |
| 1787698401 | 26.67° C | 72% | 1016.7 hPa | 0 mm | - | - | - |
| 1787698100 | 27.22° C | 72% | 1016.7 hPa | 0 mm | - | - | - |
| 1787697800 | 27.22° C | 72% | 1016.8 hPa | 0 mm | - | - | - |
| 1787697500 | 27.22° C | 73% | 1016.7 hPa | 0 mm | - | - | - |
| 1787697200 | 26.67° C | 72% | 1016.7 hPa | 0 mm | - | - | - |
| 1787696900 | 26.11° C | 77% | 1016.7 hPa | 0 mm | - | - | - |
| 1787696600 | 25.56° C | 77% | 1016.7 hPa | 0 mm | - | - | - |
| 1787696300 | 25.56° C | 73% | 1016.6 hPa | 0 mm | - | - | - |
| 1787695999 | 25.56° C | 75% | 1016.6 hPa | 0 mm | - | - | - |
| 1787695699 | 25.56° C | 79% | 1016.5 hPa | 0 mm | - | - | - |
| 1787695399 | 25° C | 78% | 1016.5 hPa | 0 mm | - | - | - |
| 1787695099 | 25° C | 75% | 1016.4 hPa | 0 mm | - | - | - |
| 1787694799 | 25° C | 75% | 1016.4 hPa | 0 mm | - | - | - |
* Rain latest hour (hover to see other rain measurements)
** Current wind speed in m/s (hover to see current wind gust speed)